timestamp,wind_dir_avg,wind_spd_max_dir,wind_spd_avg,wind_spd_gust,battery_voltage,lat,long
2018-03-06 00:00:00+00:00,65.0,67.0,15.56,17.34,,47.59359,-54.27349
2018-03-06 00:10:00+00:00,62.0,59.0,14.15,17.34,,47.59359,-54.27349
2018-03-06 00:20:00+00:00,65.0,62.0,14.58,17.14,,47.59359,-54.27349
2018-03-06 00:30:00+00:00,68.0,76.0,15.15,20.76,,47.59359,-54.27349
2018-03-06 00:40:00+00:00,68.0,75.0,17.33,23.04,,47.59359,-54.27349
2018-03-06 00:50:00+00:00,66.0,70.0,16.46,23.55,,47.59359,-54.27349
2018-03-06 01:00:00+00:00,65.0,67.0,15.98,21.07,,47.59359,-54.27349
2018-03-06 01:10:00+00:00,67.0,73.0,16.95,23.45,,47.59359,-54.27349
2018-03-06 01:20:00+00:00,62.0,59.0,16.14,20.0,,47.59359,-54.27349
2018-03-06 01:30:00+00:00,65.0,69.0,18.7,23.44,,47.59359,-54.27349
2018-03-06 01:40:00+00:00,62.0,67.0,16.96,22.61,,47.59359,-54.27349
2018-03-06 01:50:00+00:00,62.0,66.0,17.22,23.16,,47.59359,-54.27349
2018-03-06 02:00:00+00:00,65.0,69.0,18.82,23.82,,47.59359,-54.27349
2018-03-06 02:10:00+00:00,64.0,73.0,18.15,23.2,,47.59359,-54.27349
2018-03-06 02:20:00+00:00,64.0,71.0,18.69,22.73,,47.59359,-54.27349
2018-03-06 02:30:00+00:00,67.0,67.0,16.43,20.62,,47.59359,-54.27349
2018-03-06 02:40:00+00:00,65.0,73.0,17.65,21.95,,47.59359,-54.27349
2018-03-06 02:50:00+00:00,66.0,66.0,16.88,19.5,,47.59359,-54.27349
2018-03-06 03:00:00+00:00,66.0,75.0,17.02,22.34,,47.59359,-54.27349
2018-03-06 03:10:00+00:00,65.0,71.0,18.6,23.1,,47.59359,-54.27349
2018-03-06 03:20:00+00:00,68.0,67.0,19.23,23.4,,47.59359,-54.27349
2018-03-06 03:30:00+00:00,67.0,73.0,18.94,22.72,,47.59359,-54.27349
2018-03-06 03:40:00+00:00,69.0,73.0,19.13,23.08,,47.59359,-54.27349
2018-03-06 03:50:00+00:00,65.0,64.0,19.16,23.52,,47.59359,-54.27349
2018-03-06 04:00:00+00:00,67.0,76.0,17.42,21.93,,47.59359,-54.27349
2018-03-06 04:10:00+00:00,65.0,63.0,21.7,24.34,,47.59359,-54.27349
2018-03-06 04:20:00+00:00,62.0,62.0,19.47,24.13,,47.59359,-54.27349
2018-03-06 04:30:00+00:00,63.0,64.0,18.8,23.9,,47.59359,-54.27349
2018-03-06 04:40:00+00:00,64.0,62.0,18.82,24.13,,47.59359,-54.27349
2018-03-06 04:50:00+00:00,67.0,65.0,19.89,23.69,,47.59359,-54.27349
2018-03-06 05:00:00+00:00,68.0,64.0,19.67,23.88,,47.59359,-54.27349
2018-03-06 05:10:00+00:00,66.0,69.0,19.1,23.04,,47.59359,-54.27349
2018-03-06 05:20:00+00:00,71.0,75.0,17.15,20.86,,47.59359,-54.27349
2018-03-06 05:30:00+00:00,70.0,72.0,19.38,23.13,,47.59359,-54.27349
2018-03-06 05:40:00+00:00,68.0,64.0,19.96,24.34,,47.59359,-54.27349
2018-03-06 05:50:00+00:00,67.0,69.0,19.29,23.61,,47.59359,-54.27349
2018-03-06 06:00:00+00:00,65.0,68.0,22.95,27.78,,47.59359,-54.27349
2018-03-06 06:10:00+00:00,68.0,73.0,20.01,24.28,,47.59359,-54.27349
2018-03-06 06:20:00+00:00,65.0,65.0,20.06,24.19,,47.59359,-54.27349
2018-03-06 06:30:00+00:00,71.0,73.0,20.95,24.23,,47.59359,-54.27349
2018-03-06 06:40:00+00:00,68.0,74.0,20.44,24.41,,47.59359,-54.27349
2018-03-06 06:50:00+00:00,69.0,67.0,20.79,25.22,,47.59359,-54.27349
2018-03-06 07:00:00+00:00,69.0,72.0,18.8,23.1,,47.59359,-54.27349
2018-03-06 07:10:00+00:00,75.0,74.0,20.35,23.82,,47.59359,-54.27349
2018-03-06 07:20:00+00:00,75.0,78.0,20.82,23.79,,47.59359,-54.27349
2018-03-06 07:30:00+00:00,68.0,63.0,20.27,24.62,,47.59359,-54.27349
2018-03-06 07:40:00+00:00,76.0,79.0,19.18,23.59,,47.59359,-54.27349
2018-03-06 07:50:00+00:00,72.0,69.0,22.92,25.03,,47.59359,-54.27349
2018-03-06 08:00:00+00:00,73.0,76.0,21.1,25.18,,47.59359,-54.27349
2018-03-06 08:10:00+00:00,73.0,75.0,19.96,24.35,,47.59359,-54.27349
2018-03-06 08:20:00+00:00,71.0,62.0,22.36,24.71,,47.59359,-54.27349
2018-03-06 08:30:00+00:00,72.0,75.0,21.15,24.91,,47.59359,-54.27349
2018-03-06 08:40:00+00:00,71.0,64.0,21.56,24.44,,47.59359,-54.27349
2018-03-06 08:50:00+00:00,73.0,70.0,22.36,24.95,,47.59359,-54.27349
2018-03-06 09:00:00+00:00,71.0,64.0,20.36,24.56,,47.59359,-54.27349
2018-03-06 09:10:00+00:00,73.0,73.0,17.19,23.02,,47.59359,-54.27349
2018-03-06 09:20:00+00:00,72.0,75.0,19.64,23.33,,47.59359,-54.27349
2018-03-06 09:30:00+00:00,70.0,73.0,17.15,22.31,,47.59359,-54.27349
2018-03-06 09:40:00+00:00,67.0,60.0,18.79,24.61,,47.59359,-54.27349
2018-03-06 09:50:00+00:00,75.0,73.0,22.0,24.29,,47.59359,-54.27349
2018-03-06 10:00:00+00:00,73.0,72.0,22.29,25.08,,47.59359,-54.27349
2018-03-06 10:10:00+00:00,69.0,65.0,18.81,24.05,,47.59359,-54.27349
2018-03-06 10:20:00+00:00,70.0,66.0,21.25,25.04,,47.59359,-54.27349
2018-03-06 10:30:00+00:00,74.0,74.0,22.99,25.34,,47.59359,-54.27349
2018-03-06 10:40:00+00:00,73.0,73.0,22.47,24.57,,47.59359,-54.27349
2018-03-06 10:50:00+00:00,68.0,65.0,18.37,23.54,,47.59359,-54.27349
2018-03-06 11:00:00+00:00,71.0,66.0,19.73,23.78,,47.59359,-54.27349
2018-03-06 11:10:00+00:00,72.0,67.0,21.57,23.97,,47.59359,-54.27349
2018-03-06 11:20:00+00:00,70.0,70.0,21.61,24.68,,47.59359,-54.27349
2018-03-06 11:30:00+00:00,66.0,66.0,17.5,24.02,,47.59359,-54.27349
2018-03-06 11:40:00+00:00,60.0,73.0,17.76,22.89,,47.59359,-54.27349
2018-03-06 11:50:00+00:00,64.0,69.0,19.58,23.88,,47.59359,-54.27349
2018-03-06 12:00:00+00:00,60.0,66.0,18.95,23.07,,47.59359,-54.27349
2018-03-06 12:10:00+00:00,63.0,62.0,17.87,23.8,,47.59359,-54.27349
2018-03-06 12:20:00+00:00,64.0,60.0,18.59,24.77,,47.59359,-54.27349
2018-03-06 12:30:00+00:00,63.0,62.0,16.22,20.62,,47.59359,-54.27349
2018-03-06 12:40:00+00:00,61.0,61.0,18.36,23.8,,47.59359,-54.27349
2018-03-06 12:50:00+00:00,69.0,73.0,17.82,23.15,,47.59359,-54.27349
2018-03-06 13:00:00+00:00,72.0,72.0,21.57,24.01,,47.59359,-54.27349
2018-03-06 13:10:00+00:00,70.0,73.0,17.14,22.72,,47.59359,-54.27349
2018-03-06 13:20:00+00:00,69.0,72.0,19.94,24.54,,47.59359,-54.27349
2018-03-06 13:30:00+00:00,71.0,70.0,19.04,23.51,,47.59359,-54.27349
2018-03-06 13:40:00+00:00,69.0,69.0,19.05,24.34,,47.59359,-54.27349
2018-03-06 13:50:00+00:00,67.0,62.0,20.81,24.94,,47.59359,-54.27349
2018-03-06 14:00:00+00:00,68.0,67.0,21.29,24.31,,47.59359,-54.27349
2018-03-06 14:10:00+00:00,68.0,65.0,19.73,23.94,,47.59359,-54.27349
2018-03-06 14:20:00+00:00,69.0,71.0,19.08,23.42,,47.59359,-54.27349
2018-03-06 14:30:00+00:00,69.0,68.0,20.39,23.67,,47.59359,-54.27349
2018-03-06 14:40:00+00:00,68.0,72.0,17.42,23.05,,47.59359,-54.27349
2018-03-06 14:50:00+00:00,72.0,74.0,18.61,23.28,,47.59359,-54.27349
2018-03-06 15:00:00+00:00,74.0,75.0,21.69,23.84,,47.59359,-54.27349
2018-03-06 15:10:00+00:00,73.0,71.0,20.35,23.68,,47.59359,-54.27349
2018-03-06 15:20:00+00:00,71.0,70.0,18.3,23.55,,47.59359,-54.27349
2018-03-06 15:30:00+00:00,71.0,65.0,22.54,25.87,,47.59359,-54.27349
2018-03-06 15:40:00+00:00,72.0,73.0,20.8,24.15,,47.59359,-54.27349
2018-03-06 15:50:00+00:00,69.0,69.0,19.42,23.63,,47.59359,-54.27349
2018-03-06 16:00:00+00:00,68.0,70.0,19.6,24.03,,47.59359,-54.27349
2018-03-06 16:10:00+00:00,69.0,66.0,19.93,23.94,,47.59359,-54.27349
2018-03-06 16:20:00+00:00,69.0,60.0,22.4,25.24,,47.59359,-54.27349
2018-03-06 16:30:00+00:00,66.0,69.0,19.11,23.51,,47.59359,-54.27349
2018-03-06 16:40:00+00:00,67.0,61.0,21.38,25.58,,47.59359,-54.27349
2018-03-06 16:50:00+00:00,66.0,62.0,20.63,24.77,,47.59359,-54.27349
2018-03-06 17:00:00+00:00,67.0,68.0,19.28,23.84,,47.59359,-54.27349
2018-03-06 17:10:00+00:00,70.0,74.0,22.0,25.05,,47.59359,-54.27349
2018-03-06 17:20:00+00:00,67.0,64.0,21.57,25.53,,47.59359,-54.27349
2018-03-06 17:30:00+00:00,66.0,61.0,21.82,24.97,,47.59359,-54.27349
2018-03-06 17:40:00+00:00,68.0,70.0,19.51,25.09,,47.59359,-54.27349
2018-03-06 17:50:00+00:00,67.0,73.0,19.06,24.08,,47.59359,-54.27349
2018-03-06 18:00:00+00:00,72.0,66.0,21.16,24.23,,47.59359,-54.27349
2018-03-06 18:10:00+00:00,66.0,70.0,19.24,24.89,,47.59359,-54.27349
2018-03-06 18:20:00+00:00,68.0,61.0,22.54,25.59,,47.59359,-54.27349
2018-03-06 18:30:00+00:00,68.0,70.0,19.52,23.83,,47.59359,-54.27349
2018-03-06 18:40:00+00:00,66.0,64.0,18.83,24.5,,47.59359,-54.27349
2018-03-06 18:50:00+00:00,68.0,69.0,19.69,24.16,,47.59359,-54.27349
2018-03-06 19:00:00+00:00,65.0,69.0,18.74,23.82,,47.59359,-54.27349
2018-03-06 19:10:00+00:00,66.0,70.0,19.95,24.07,,47.59359,-54.27349
2018-03-06 19:20:00+00:00,65.0,67.0,18.61,23.68,,47.59359,-54.27349
2018-03-06 19:30:00+00:00,68.0,67.0,20.75,24.13,,47.59359,-54.27349
2018-03-06 19:40:00+00:00,63.0,61.0,20.97,24.65,,47.59359,-54.27349
2018-03-06 19:50:00+00:00,66.0,64.0,18.43,24.55,,47.59359,-54.27349
2018-03-06 20:00:00+00:00,66.0,72.0,18.26,22.98,,47.59359,-54.27349
2018-03-06 20:10:00+00:00,67.0,70.0,18.6,23.85,,47.59359,-54.27349
2018-03-06 20:20:00+00:00,66.0,63.0,20.73,25.5,,47.59359,-54.27349
2018-03-06 20:30:00+00:00,63.0,59.0,14.79,17.84,,47.59359,-54.27349
2018-03-06 20:40:00+00:00,60.0,54.0,15.71,18.91,,47.59359,-54.27349
2018-03-06 20:50:00+00:00,61.0,60.0,18.51,23.76,,47.59359,-54.27349
2018-03-06 21:00:00+00:00,60.0,62.0,16.03,20.04,,47.59359,-54.27349
2018-03-06 21:10:00+00:00,58.0,65.0,16.94,20.4,,47.59359,-54.27349
2018-03-06 21:20:00+00:00,60.0,62.0,16.62,21.95,,47.59359,-54.27349
2018-03-06 21:30:00+00:00,60.0,66.0,18.04,24.22,,47.59359,-54.27349
2018-03-06 21:40:00+00:00,60.0,61.0,19.45,23.8,,47.59359,-54.27349
2018-03-06 21:50:00+00:00,62.0,66.0,19.23,23.67,,47.59359,-54.27349
2018-03-06 22:00:00+00:00,60.0,67.0,19.82,24.08,,47.59359,-54.27349
2018-03-06 22:10:00+00:00,60.0,65.0,18.97,23.35,,47.59359,-54.27349
2018-03-06 22:20:00+00:00,58.0,58.0,16.86,21.29,,47.59359,-54.27349
2018-03-06 22:30:00+00:00,60.0,58.0,15.69,18.75,,47.59359,-54.27349
2018-03-06 22:40:00+00:00,55.0,57.0,19.31,24.16,,47.59359,-54.27349
2018-03-06 22:50:00+00:00,61.0,65.0,20.2,24.32,,47.59359,-54.27349
2018-03-06 23:00:00+00:00,56.0,55.0,18.58,23.77,,47.59359,-54.27349
2018-03-06 23:10:00+00:00,58.0,60.0,18.34,22.69,,47.59359,-54.27349
2018-03-06 23:20:00+00:00,55.0,54.0,18.04,23.46,,47.59359,-54.27349
2018-03-06 23:30:00+00:00,55.0,58.0,17.77,21.44,,47.59359,-54.27349
2018-03-06 23:40:00+00:00,57.0,63.0,17.41,21.38,,47.59359,-54.27349
2018-03-06 23:50:00+00:00,55.0,57.0,16.77,20.62,,47.59359,-54.27349
